Weather Roundup
Issued by NWS Springfield, MO

Home | Current Version | Previous Version | Text Only | Print | Product List | Glossary On
Versions: 1 2 3 4 5 6 7 8 9 10 11 12 13 14 15 16 17 18 19 20 21 22 23 24 25 26 27 28 29 30 31 32 33 34 35 36 37 38 39 40 41 42 43 44 45 46 47 48 49 50
000
NZUS99 KSGF 181207
HRRSGF

HOURLY WEATHER
NATIONAL WEATHER SERVICE SPRINGFIELD MO
600 AM CST WED JAN 18 2017

......SGF CWA......

CITY           SKY/WX    TMP DP  RH WIND       PRES   REMARKS
SPRINGFIELD    FOG       36  35  96 CALM      30.17R VSB 1/2
6HR MIN TEMP:  35; 6HR MAX TEMP:  37;

JOPLIN         FOG       35  35 100 E8        30.17F VSB 1/4 WCI  29
6HR MIN TEMP:  35; 6HR MAX TEMP:  39;

WEST PLAINS    CLOUDY    35  35 100 NW5       30.19R FOG     WCI  31
6HR MIN TEMP:  35; 6HR MAX TEMP:  38;

ROLLA          CLOUDY    35  32  88 CALM      30.17S
6HR MIN TEMP:  35; 6HR MAX TEMP:  37;

OSAGE BEACH    CLOUDY    37  33  85 S5        30.21R WCI  33
BRANSON        FOG       36  36 100 CALM      30.19R VSB<1/4

......SURROUNDING SGF CWA......

CITY           SKY/WX    TMP DP  RH WIND       PRES   REMARKS
CHANUTE        FOG       31  30  96 SE7       30.16R VSB 1/4 WCI  24
PARSONS        CLEAR     30  29  96 CALM      30.17S FOG
COFFEYVILLE    CLEAR     29  28  96 CALM      30.17S FOG
EMPORIA        CLEAR     30  29  96 S6        30.11F WCI  24
GROVE OK       FOG       36  36 100 NE3       30.18S VSB 1/4
ROGERS AR      FOG       35  35 100 NE5       30.18R VSB 1/4 WCI  31
SILOAM SPRINGS CLEAR     34  32  93 CALM      30.17R
HARRISON AR    FOG       37  37 100 CALM      30.18R VSB 1/2
NEAR YELLVILLE CLOUDY    39  34  81 N5        30.18R

......KANSAS AND MISSOURI......

CITY           SKY/WX    TMP DP  RH WIND       PRES   REMARKS
KANSAS CTY INT FOG       25  23  92 S7        30.12F VSB 1/2 WCI  17
DOWNTOWN KC    CLOUDY    30  30 100 CALM      30.15S
COLUMBIA       CLOUDY    36  34  92 S3        30.19S
SEDALIA        CLOUDY    37  35  92 SW7       30.19S FOG     WCI  32
ST JOSEPH      FOG       27  27 100 SW3       30.13S VSB 1/4
ST LOUIS       CLOUDY    39  32  76 NW5       30.21R
SPIRIT OF STL  CLOUDY    38  33  82 SW3       30.21R
KIRKSVILLE     CLOUDY    34  33  96 SW8       30.14R FOG     WCI  27
WICHITA        PTCLDY    31  29  92 SE7       30.10S WCI  24
TOPEKA         CLOUDY    26  23  88 S3        30.13R
OLATHE         FOG       28  28 100 S5        30.14S VSB 1/4 WCI  23

......TENNESSEE......

CITY           SKY/WX    TMP DP  RH WIND       PRES   REMARKS
MEMPHIS        CLOUDY    46  40  79 NE6       30.19R
NASHVILLE      CLOUDY    46  40  79 N8        30.20R

......ARKANSAS.......

CITY           SKY/WX    TMP DP  RH WIND       PRES   REMARKS
FAYETTEVILLE   CLOUDY    32  32 100 CALM      30.17R FOG
FT SMITH       LGT RAIN  42  38  85 CALM      30.18R
LITTLE ROCK    LGT RAIN  45  43  93 E8        30.21R

......OKLAHOMA.......

CITY           SKY/WX    TMP DP  RH WIND       PRES   REMARKS
TULSA          PTCLDY    35  34  96 CALM      30.17R
MCALESTER      CLOUDY    44  39  82 NE6       30.15S
OKLAHOMA CITY  MOCLDY    38  36  92 CALM      30.11S

......IOWA............

CITY           SKY/WX    TMP DP  RH WIND       PRES   REMARKS
DES MOINES     FOG       31  30  96 SW10      30.09F VSB 1/2 WCI  22
QUAD CITIES    CLOUDY    34  30  85 W9        30.12S WCI  27

......ILLINOIS........

CITY           SKY/WX    TMP DP  RH WIND       PRES   REMARKS
QUINCY         CLOUDY    34  31  88 W9        30.17R WCI  27
CHICAGO        DRIZZLE   35  33  92 W10       30.09R FOG     WCI  27




USA.gov is the U.S. government's official web portal to all federal, state and local government web resources and services.